SWR2PH LOWG-LSZH

Flight info

Callsign SWR2PH
Flight time N/A
Altitude 30000
Route ABIRI DCT ERKIR L608 KPT L856 NEGRA
Aircraft A21N/M-SDE2E3FGHIJ1RWXY/LB1

Departure

Time N/A
Airport Graz Airport (LOWG)

Arrival

Time 2026-04-26 17:32
Airport Zürich Airport (LSZH)
Time Latitude Longitude Altitude Speed Heading
2026-04-26 17:10 47.74167 10.31998 30211 ft 357 kts 262°
2026-04-26 17:10 47.74002 10.28246 29960 ft 373 kts 267°
2026-04-26 17:10 47.73944 10.24311 29710 ft 389 kts 268°
2026-04-26 17:10 47.73894 10.20206 29455 ft 405 kts 268°
2026-04-26 17:11 47.73833 10.15987 29108 ft 423 kts 268°
2026-04-26 17:11 47.73762 10.11576 28580 ft 428 kts 268°
2026-04-26 17:11 47.73689 10.07172 28007 ft 425 kts 268°
2026-04-26 17:11 47.73611 10.02797 27428 ft 422 kts 268°
2026-04-26 17:12 47.73451 9.94167 26282 ft 414 kts 268°
2026-04-26 17:12 47.73370 9.89909 25737 ft 411 kts 268°
2026-04-26 17:13 47.73204 9.81480 24682 ft 405 kts 268°
2026-04-26 17:13 47.73119 9.77317 24149 ft 402 kts 268°
2026-04-26 17:13 47.72946 9.69088 23010 ft 394 kts 269°
2026-04-26 17:14 47.72857 9.65037 22448 ft 391 kts 269°
2026-04-26 17:14 47.72630 9.57036 21359 ft 385 kts 268°
2026-04-26 17:14 47.72515 9.53133 20836 ft 382 kts 268°
2026-04-26 17:15 47.72227 9.45403 20077 ft 364 kts 263°
2026-04-26 17:15 47.71523 9.41864 19851 ft 354 kts 246°
2026-04-26 17:15 47.70182 9.38805 19555 ft 347 kts 234°
2026-04-26 17:16 47.68656 9.36062 19091 ft 343 kts 233°
2026-04-26 17:16 47.67145 9.33405 18599 ft 341 kts 233°
2026-04-26 17:16 47.65634 9.30713 18028 ft 339 kts 233°
2026-04-26 17:16 47.64140 9.28023 17466 ft 336 kts 233°
2026-04-26 17:17 47.62675 9.25374 17126 ft 327 kts 233°
2026-04-26 17:17 47.61262 9.22812 16927 ft 315 kts 233°
2026-04-26 17:17 47.59930 9.20297 16593 ft 306 kts 238°
2026-04-26 17:17 47.59033 9.17490 16141 ft 300 kts 256°
2026-04-26 17:18 47.58611 9.14483 15670 ft 297 kts 261°
2026-04-26 17:18 47.58269 9.11471 15195 ft 296 kts 261°
2026-04-26 17:18 47.57923 9.08468 14742 ft 295 kts 261°
2026-04-26 17:18 47.57599 9.05473 14310 ft 295 kts 265°
2026-04-26 17:19 47.58399 8.99610 13540 ft 294 kts 291°
2026-04-26 17:19 47.59199 8.96831 13174 ft 293 kts 292°
2026-04-26 17:19 47.59989 8.94068 12823 ft 290 kts 291°
2026-04-26 17:20 47.60761 8.91318 12461 ft 288 kts 291°
2026-04-26 17:20 47.61268 8.89495 12221 ft 289 kts 291°
2026-04-26 17:20 47.62279 8.85808 11744 ft 288 kts 291°
2026-04-26 17:20 47.62987 8.83044 11387 ft 285 kts 285°
2026-04-26 17:21 47.63211 8.80154 11008 ft 283 kts 265°
2026-04-26 17:21 47.62723 8.77325 10670 ft 284 kts 249°
2026-04-26 17:21 47.61949 8.74656 10329 ft 280 kts 247°
2026-04-26 17:21 47.61160 8.72008 9993 ft 282 kts 247°
2026-04-26 17:22 47.60381 8.69355 9603 ft 281 kts 247°
2026-04-26 17:22 47.59613 8.66692 9211 ft 281 kts 248°
2026-04-26 17:22 47.58922 8.63993 8835 ft 279 kts 257°
2026-04-26 17:22 47.58798 8.61143 8472 ft 278 kts 279°
2026-04-26 17:23 47.59433 8.58490 8056 ft 273 kts 303°
2026-04-26 17:23 47.60667 8.56397 7640 ft 270 kts 319°
2026-04-26 17:23 47.62074 8.54553 7214 ft 270 kts 320°
2026-04-26 17:23 47.63470 8.52720 6765 ft 267 kts 320°
2026-04-26 17:24 47.64843 8.50893 6329 ft 264 kts 320°
2026-04-26 17:24 47.66193 8.49076 5861 ft 260 kts 320°
2026-04-26 17:24 47.67523 8.47272 5404 ft 258 kts 319°
2026-04-26 17:24 47.68824 8.45498 4969 ft 257 kts 320°
2026-04-26 17:25 47.70135 8.43705 4518 ft 256 kts 320°
2026-04-26 17:25 47.71436 8.41920 4119 ft 252 kts 319°
2026-04-26 17:25 47.72714 8.40159 3999 ft 251 kts 318°
2026-04-26 17:25 47.73933 8.38292 3987 ft 251 kts 310°
2026-04-26 17:26 47.74642 8.36011 3993 ft 244 kts 282°
2026-04-26 17:26 47.74544 8.33506 4008 ft 243 kts 253°
2026-04-26 17:26 47.73758 8.31296 4005 ft 245 kts 226°
2026-04-26 17:26 47.72368 8.29889 4006 ft 241 kts 197°
2026-04-26 17:27 47.70732 8.29463 4026 ft 237 kts 178°
2026-04-26 17:27 47.69120 8.29809 4025 ft 233 kts 168°
2026-04-26 17:27 47.67521 8.30186 4018 ft 232 kts 168°
2026-04-26 17:27 47.65932 8.30768 4009 ft 250 kts 159°
2026-04-26 17:28 47.64307 8.31911 4028 ft 261 kts 147°
2026-04-26 17:28 47.62835 8.33482 4023 ft 260 kts 139°
2026-04-26 17:28 47.61564 8.35379 4012 ft 260 kts 133°
2026-04-26 17:28 47.60228 8.37189 4007 ft 259 kts 133°
2026-04-26 17:29 47.58951 8.38939 4004 ft 241 kts 134°
2026-04-26 17:29 47.58160 8.40029 3975 ft 229 kts 135°
2026-04-26 17:29 47.56670 8.42065 3681 ft 209 kts 134°
2026-04-26 17:29 47.55610 8.43515 3420 ft 205 kts 134°
2026-04-26 17:30 47.54601 8.44894 3195 ft 189 kts 134°
2026-04-26 17:30 47.53667 8.46170 2975 ft 176 kts 134°
2026-04-26 17:30 47.52789 8.47369 2751 ft 168 kts 134°
2026-04-26 17:30 47.51953 8.48509 2481 ft 159 kts 134°
2026-04-26 17:31 47.51156 8.49597 2234 ft 153 kts 136°
2026-04-26 17:31 47.50419 8.50598 2039 ft 139 kts 136°
2026-04-26 17:31 47.49703 8.51565 1827 ft 141 kts 134°
2026-04-26 17:31 47.48988 8.52564 1652 ft 141 kts 134°
2026-04-26 17:32 47.48265 8.53528 1464 ft 139 kts 134°
2026-04-26 17:32 47.47598 8.54443 1406 ft 114 kts 137°
2026-04-26 17:32 47.47108 8.55115 1393 ft 84 kts 135°
2026-04-26 17:32 47.46760 8.55587 1404 ft 35 kts 143°
2026-04-26 17:33 47.46618 8.55673 1404 ft 21 kts 170°
2026-04-26 17:33 47.46492 8.55709 1405 ft 18 kts 169°
2026-04-26 17:33 47.46368 8.55764 1408 ft 20 kts 137°
2026-04-26 17:34 47.46134 8.56000 1412 ft 23 kts 191°
2026-04-26 17:34 47.45971 8.55970 1411 ft 24 kts 192°
2026-04-26 17:34 47.45806 8.55884 1416 ft 26 kts 192°
2026-04-26 17:34 47.45621 8.55856 1414 ft 27 kts 185°
2026-04-26 17:35 47.45486 8.55812 1415 ft 16 kts 189°
2026-04-26 17:35 47.45430 8.55804 1412 ft 0 kts 185°